Romeoville, IL

3:02 PM CDT on July 23, 2017 (GMT -0500)
Lewis University

Weather History for KLOT - March, 2013

Change the Weather History Date:

Monday, March 25, 2013

  Actual Average Record
Temperature  
Mean Temperature 33 °F 42 °F  
Max Temperature 36 °F 52 °F 78 °F (2007)
Min Temperature 30 °F 33 °F 16 °F (2001)
Degree Days  
Heating Degree Days 32 23  
Month to date heating degree days 860 688  
Since 1 July heating degree days 5314 5416  
Cooling Degree Days 0 0  
Month to date cooling degree days 0 0  
Year to date cooling degree days 0 0  
Moisture  
Dew Point 27 °F    
Average Humidity 79    
Maximum Humidity 92    
Minimum Humidity 70    
Precipitation  
Precipitation 0.00 in 0.09 in 0.52 in (2017)
Month to date precipitation 2.26 2.21  
Year to date precipitation 8.08 5.92  
Snow  
Snow 0.00 in 0.10 in 0.90 in (2005)
Month to date snowfall 9.8 4.1  
Since 1 July snowfall 22.8 31.5  
Snow Depth 0.00 in    
Sea Level Pressure  
Sea Level Pressure 29.85 in    
Wind  
Wind Speed 15 mph (North)    
Max Wind Speed 25 mph    
Max Gust Speed 32 mph    
Visibility 9 miles    
Events Rain , Snow    
T = Trace of Precipitation, MM = Missing Value Source: NWS Daily Summary

Daily Weather History Graph

Daily Weather History Graph

Search for Another Location

Airport or City:

Trip Planner

Search our weather history database for the weather conditions in past years. The results will help you decide how hot, cold, wet, or windy it might be!

Date:

Astronomy

Mar. 25, 2013 Rise Set
Actual Time 6:46 AM CDT 7:10 PM CDT
Civil Twilight 6:18 AM CDT 7:38 PM CDT
Nautical Twilight 5:46 AM CDT 8:10 PM CDT
Astronomical Twilight 5:12 AM CDT 8:44 PM CDT
Moon 5:41 PM CDT (3/25) 5:31 AM CDT (3/25)
Length of Visible Light 13h 19m
Length of Day
12h 23m
Waxing Gibbous, 96% of the Moon is Illuminated
Mar 25
Waxing Gibbous
Mar 27
Full
Apr 2
Last Quarter
Apr 10
New
Apr 18
First Quarter

Hourly Weather History & Observations

Time (CDT) Temp. Windchill Dew Point Humidity Pressure Visibility Wind Dir Wind Speed Gust Speed Precip Events Conditions
12:15 AM 32.0 °F 22.1 °F 30.0 °F 92% 29.68 in 4.0 mi NNE 13.8 mph 20.7 mph N/A Rain Light Rain
12:35 AM 32.0 °F 20.5 °F 29.7 °F 91% 29.68 in 7.0 mi NNE 18.4 mph 23.0 mph N/A Rain Light Rain
12:55 AM 32.5 °F 20.5 °F 27.9 °F 83% 29.67 in 5.0 mi NNE 20.7 mph 32.2 mph N/A Rain Light Rain
1:15 AM 32.9 °F 19.8 °F 26.8 °F 78% 29.68 in 10.0 mi NNE 25.3 mph 31.1 mph N/A   Light Drizzle
1:35 AM 32.9 °F 21.3 °F 26.6 °F 78% 29.68 in 10.0 mi NNE 19.6 mph 25.3 mph N/A   Overcast
1:55 AM 32.9 °F 22.4 °F 26.4 °F 77% 29.68 in 10.0 mi NNE 16.1 mph 25.3 mph N/A   Overcast
2:15 AM 32.9 °F 22.0 °F 26.2 °F 76% 29.68 in 10.0 mi North 17.3 mph 24.2 mph N/A   Overcast
2:35 AM 32.7 °F 21.4 °F 25.7 °F 75% 29.68 in 10.0 mi NNE 18.4 mph 25.3 mph N/A   Overcast
2:55 AM 32.5 °F 20.5 °F 24.8 °F 73% 29.68 in 10.0 mi NNE 20.7 mph 27.6 mph N/A   Overcast
3:15 AM 32.0 °F 20.1 °F 24.3 °F 73% 29.68 in 10.0 mi North 19.6 mph 24.2 mph N/A   Overcast
3:35 AM 32.0 °F 20.1 °F 23.4 °F 70% 29.68 in 10.0 mi NNE 19.6 mph 26.5 mph N/A   Mostly Cloudy
3:55 AM 31.8 °F 21.8 °F 24.4 °F 74% 29.68 in 10.0 mi North 13.8 mph 19.6 mph N/A   Overcast
4:15 AM 31.6 °F 21.2 °F 25.5 °F 78% 29.68 in 10.0 mi North 15.0 mph - N/A   Overcast
4:35 AM 31.3 °F 20.3 °F 25.3 °F 79% 29.68 in 10.0 mi North 16.1 mph - N/A   Overcast
4:55 AM 31.5 °F 21.4 °F 24.8 °F 76% 29.70 in 10.0 mi North 13.8 mph - N/A   Overcast
5:15 AM 31.5 °F 22.9 °F 24.8 °F 76% 29.70 in 10.0 mi North 10.4 mph - N/A   Overcast
5:35 AM 32.0 °F 21.2 °F 23.9 °F 72% 29.71 in 10.0 mi NNE 16.1 mph - N/A   Overcast
5:55 AM 32.0 °F 22.1 °F 23.5 °F 71% 29.71 in 10.0 mi North 13.8 mph 19.6 mph N/A   Overcast
6:15 AM 31.8 °F 22.3 °F 23.9 °F 73% 29.72 in 10.0 mi North 12.7 mph 18.4 mph N/A   Overcast
6:35 AM 31.8 °F 22.8 °F 24.3 °F 74% 29.73 in 10.0 mi North 11.5 mph - N/A   Overcast
6:55 AM 30.2 °F 20.2 °F 25.7 °F 83% 29.73 in 10.0 mi NNW 12.7 mph - N/A   Overcast
7:15 AM 30.2 °F 20.2 °F 25.7 °F 83% 29.74 in 10.0 mi NNW 12.7 mph - N/A   Overcast
7:35 AM 30.6 °F 21.2 °F 26.1 °F 83% 29.74 in 10.0 mi NNW 11.5 mph - N/A   Overcast
7:55 AM 30.7 °F 20.0 °F 26.2 °F 83% 29.75 in 10.0 mi NNW 15.0 mph 19.6 mph N/A   Overcast
8:15 AM 31.1 °F 20.5 °F 26.2 °F 82% 29.76 in 10.0 mi North 15.0 mph - N/A   Overcast
8:35 AM 31.1 °F 20.1 °F 26.4 °F 83% 29.76 in 10.0 mi NNW 16.1 mph 19.6 mph N/A   Overcast
8:55 AM 31.5 °F 20.5 °F 27.0 °F 83% 29.77 in 10.0 mi North 16.1 mph - N/A Rain Light Freezing Rain
9:15 AM 31.6 °F 21.2 °F 27.3 °F 84% 29.78 in 7.0 mi North 15.0 mph 18.4 mph N/A Rain Light Freezing Rain
9:35 AM 32.0 °F 20.5 °F 27.7 °F 84% 29.79 in 7.0 mi North 18.4 mph 23.0 mph N/A Rain Light Rain
9:55 AM 32.0 °F 20.8 °F 28.2 °F 86% 29.80 in 4.0 mi North 17.3 mph 23.0 mph N/A   Overcast
10:15 AM 32.0 °F 20.5 °F 28.4 °F 87% 29.81 in 5.0 mi North 18.4 mph - N/A   Overcast
10:35 AM 32.4 °F 21.7 °F 28.8 °F 87% 29.82 in 5.0 mi North 16.1 mph - N/A Snow Light Snow
10:55 AM 32.5 °F 23.2 °F 28.9 °F 87% 29.82 in 4.0 mi North 12.7 mph 20.7 mph N/A Snow Light Snow
11:15 AM 33.1 °F 21.9 °F 28.9 °F 85% 29.83 in 7.0 mi North 18.4 mph - N/A   Overcast
11:35 AM 33.3 °F 23.2 °F 28.8 °F 84% 29.84 in 7.0 mi North 15.0 mph - N/A Rain Light Rain
11:55 AM 33.8 °F 24.3 °F 28.4 °F 81% 29.84 in 10.0 mi North 13.8 mph 21.9 mph N/A Rain Light Rain
12:15 PM 33.8 °F 23.2 °F 27.5 °F 78% 29.84 in 10.0 mi North 17.3 mph 23.0 mph N/A Rain Rain
12:35 PM 32.9 °F 22.8 °F 28.2 °F 83% 29.85 in 5.0 mi North 15.0 mph 23.0 mph N/A Rain Light Rain
12:55 PM 34.3 °F 23.9 °F 28.6 °F 79% 29.85 in 10.0 mi North 17.3 mph - N/A   Light Drizzle
1:15 PM 35.4 °F 25.6 °F 27.1 °F 72% 29.85 in 10.0 mi North 16.1 mph 23.0 mph N/A   Overcast
1:35 PM 34.7 °F 24.0 °F 28.2 °F 77% 29.86 in 10.0 mi North 18.4 mph 25.3 mph N/A Rain Rain
1:55 PM 35.1 °F 25.2 °F 28.2 °F 76% 29.86 in 10.0 mi North 16.1 mph 20.7 mph N/A   Light Drizzle
2:15 PM 34.5 °F 25.7 °F 28.8 °F 79% 29.87 in 10.0 mi North 12.7 mph 23.0 mph N/A Rain Light Rain
2:35 PM 35.1 °F 25.5 °F 27.1 °F 73% 29.88 in 10.0 mi North 15.0 mph - N/A Rain Light Rain
2:55 PM 35.2 °F 26.2 °F 26.8 °F 71% 29.89 in 10.0 mi North 13.8 mph 19.6 mph N/A Rain Light Rain
3:15 PM 34.0 °F 23.8 °F 27.7 °F 78% 29.89 in 10.0 mi North 16.1 mph 21.9 mph N/A Rain Light Rain
3:35 PM 34.2 °F 25.2 °F 28.2 °F 79% 29.90 in 10.0 mi North 12.7 mph 18.4 mph N/A Rain Light Rain
3:55 PM 34.3 °F 23.5 °F 27.5 °F 76% 29.91 in 10.0 mi North 18.4 mph 23.0 mph N/A Rain Light Rain
4:15 PM 33.8 °F 23.5 °F 27.9 °F 79% 29.92 in 10.0 mi North 16.1 mph 23.0 mph N/A   Light Drizzle
4:35 PM 33.8 °F 24.3 °F 27.9 °F 79% 29.93 in 10.0 mi North 13.8 mph - N/A Rain Light Rain
4:55 PM 33.8 °F 24.3 °F 27.5 °F 78% 29.94 in 10.0 mi North 13.8 mph 19.6 mph N/A Rain Light Rain
5:15 PM 32.9 °F 22.8 °F 28.8 °F 85% 29.95 in 7.0 mi NNW 15.0 mph - N/A Rain Rain
5:35 PM 32.9 °F 22.8 °F 28.2 °F 83% 29.96 in 10.0 mi North 15.0 mph - N/A Rain Light Rain
5:55 PM 33.1 °F 24.4 °F 27.0 °F 78% 29.97 in 10.0 mi North 11.5 mph - N/A Rain Light Rain
6:15 PM 32.9 °F 23.2 °F 26.6 °F 78% 29.98 in 10.0 mi North 13.8 mph 21.9 mph N/A Rain Light Rain
6:35 PM 33.8 °F 23.9 °F 26.6 °F 75% 29.99 in 10.0 mi NNW 15.0 mph - N/A Rain Light Rain
6:55 PM 32.9 °F 22.4 °F 25.5 °F 74% 30.00 in 10.0 mi NNW 16.1 mph 19.6 mph N/A   Light Drizzle
7:15 PM 32.9 °F 23.2 °F 25.0 °F 73% 30.01 in 10.0 mi North 13.8 mph - N/A   Light Drizzle
7:35 PM 32.7 °F 24.5 °F 24.8 °F 73% 30.02 in 10.0 mi North 10.4 mph - N/A   Light Drizzle
7:55 PM 32.5 °F 23.7 °F 25.0 °F 74% 30.03 in 10.0 mi NNW 11.5 mph - N/A   Overcast
8:15 PM 32.4 °F 24.0 °F 25.2 °F 75% 30.04 in 10.0 mi NNW 10.4 mph - N/A   Overcast
8:35 PM 32.2 °F 25.0 °F 25.5 °F 76% 30.05 in 10.0 mi NNW 8.1 mph - N/A   Overcast
8:55 PM 32.0 °F 24.2 °F 25.7 °F 78% 30.05 in 10.0 mi NNW 9.2 mph - N/A   Overcast
9:15 PM 32.0 °F 24.2 °F 25.9 °F 78% 30.05 in 10.0 mi NNW 9.2 mph - N/A   Overcast
9:35 PM 32.2 °F 23.2 °F 25.9 °F 78% 30.06 in 10.0 mi NNW 11.5 mph - N/A   Overcast
9:55 PM 32.2 °F 24.4 °F 26.2 °F 79% 30.06 in 10.0 mi NNW 9.2 mph - N/A Rain Light Rain
10:15 PM 32.4 °F 24.0 °F 26.1 °F 78% 30.07 in 10.0 mi NNW 10.4 mph - N/A   Overcast
10:35 PM 32.5 °F 24.8 °F 26.1 °F 77% 30.07 in 10.0 mi NNW 9.2 mph - N/A   Light Drizzle
10:55 PM 32.2 °F 25.0 °F 26.1 °F 78% 30.07 in 10.0 mi NNW 8.1 mph - N/A   Overcast
11:15 PM 32.2 °F 25.8 °F 26.1 °F 78% 30.07 in 10.0 mi NNW 6.9 mph - N/A   Overcast
11:35 PM 32.2 °F 25.8 °F 26.1 °F 78% 30.07 in 10.0 mi NW 6.9 mph - N/A   Overcast
11:55 PM 32.2 °F 26.7 °F 25.9 °F 78% 30.07 in 10.0 mi NW 5.8 mph - N/A   Overcast